Vorticity
nan nan nan nan nan nan nan nan nan nan nan nan nan nan nan nan nan nan nan nan nan nan nan nan nan nan nan nan nan nan nan nan
nan 9 9 6 8 7 7 7 6 6 5 6 7 4 4 5 5 7 6 5 6 5 5 6 5 5 4 1 2 7 10 nan
nan 8 6 8 7 9 9 6 5 5 5 3 1 4 6 5 6 7 6 6 6 5 6 6 5 4 3 2 8 14 10 nan
nan 6 7 7 7 9 6 6 5 6 6 3 3 7 7 6 7 7 5 6 4 4 4 4 3 4 5 6 9 12 10 nan
nan 7 8 4 5 6 7 7 8 10 9 4 4 5 6 6 5 5 6 4 3 5 3 5 6 5 6 6 10 7 8 nan
nan 6 6 4 5 8 8 7 7 8 10 6 3 6 7 6 7 7 6 5 7 5 6 7 7 7 6 6 7 8 8 nan
nan 7 6 6 4 6 8 8 8 8 9 7 4 7 6 7 8 6 6 8 7 6 7 6 7 8 7 6 6 10 8 nan
nan 6 5 6 6 5 5 8 9 7 8 10 6 5 7 7 7 6 7 7 8 8 7 6 7 8 8 7 10 11 6 nan
nan 14 7 7 6 5 6 8 8 8 11 11 6 6 7 6 6 7 7 8 7 6 5 6 8 9 8 7 10 9 7 nan
nan 11 13 7 5 5 7 8 8 8 9 12 9 7 6 4 6 7 8 7 7 7 7 6 6 7 8 9 9 10 8 nan
nan 33 32 7 3 6 9 7 6 7 8 12 10 8 6 4 7 9 8 6 7 7 7 7 7 8 7 7 8 9 8 nan
nan 11 16 27 16 7 7 6 8 9 8 12 10 7 7 3 7 9 6 6 7 8 7 8 9 8 9 6 7 8 8 nan
nan 8 9 24 21 10 9 8 6 9 12 13 8 7 8 4 6 8 7 9 8 6 7 6 5 5 6 8 10 10 7 nan
nan 10 10 12 18 21 14 10 8 8 9 12 11 8 6 6 6 7 6 8 10 7 5 3 8 9 5 5 5 6 13 nan
nan 10 12 12 12 15 17 16 8 7 9 10 13 10 8 7 5 6 6 5 9 8 8 7 4 7 5 2 7 9 9 nan
nan 11 13 12 14 14 13 18 13 9 8 9 15 13 7 7 7 7 5 6 8 6 8 8 8 5 1 4 7 12 7 nan
nan 10 12 11 14 17 13 12 14 15 13 10 8 12 12 7 7 7 4 8 11 8 7 6 6 7 6 2 3 7 8 nan
nan 10 10 11 14 14 15 11 21 20 8 10 10 9 14 11 7 7 7 7 8 9 10 8 7 6 7 7 4 7 6 nan
nan 9 10 11 14 15 14 16 15 19 23 9 7 15 15 9 7 5 9 9 7 8 8 9 7 9 8 5 4 3 8 nan
nan nan nan nan nan nan nan nan nan nan nan nan nan nan nan nan nan nan nan nan nan nan nan nan nan nan nan nan nan nan nan nan
CAPE
1587 1748 1697 1599 1669 1631 1683 1596 1625 1779 1965 2124 2302 2050 1994 2081 2028 1893 1803 1655 1492 1294 1067 895 813 647 582 541 413 134 305 1009
1501 1780 1815 1623 1511 1370 1472 1451 1462 1646 1789 1890 1862 1712 1835 1899 1827 1780 1606 1479 1314 1118 839 720 582 380 264 272 69 90 65 1031
1740 1661 1823 1769 1625 1328 1355 1377 1361 1493 1667 1634 1451 1701 1754 1760 1718 1530 1404 1208 1059 861 626 457 295 244 86 21 28 0 587 871
2199 1898 1798 1803 1946 1684 1463 1618 1465 1568 1680 1621 1772 1635 1667 1805 1440 1261 1143 950 783 622 385 212 133 9 0 0 0 583 900 718
2383 2026 1853 1840 1992 1815 1740 1698 1595 1562 1575 1577 1626 1583 1663 1519 1283 1150 896 717 586 357 162 46 11 0 0 0 0 263 506 655
2949 2614 2164 2132 2032 1976 1677 1496 1352 1644 1566 1532 1475 1409 1556 1272 1274 1152 839 526 310 150 34 0 0 0 0 0 0 93 222 502
2755 2513 2419 2459 2130 2189 1797 1559 1528 1424 1600 1512 1292 1334 1336 1282 1234 1084 818 439 244 100 35 0 0 0 0 0 0 14 84 166
2368 2655 2488 2243 2329 2265 2053 1849 1551 1572 1692 1596 1184 1390 1159 1364 1289 1093 783 390 199 99 39 0 0 1 0 0 0 0 0 0
0 2490 2478 2840 2523 2384 2257 2103 1895 1915 1784 1641 1159 1353 1041 1471 1377 1096 749 292 117 56 3 2 0 22 0 4 0 0 0 0
0 75 2765 2648 2796 2358 2500 2319 2025 1900 1925 1738 1140 1204 1084 1541 1390 1049 592 191 92 101 35 69 101 53 1 28 0 0 0 0
0 0 2055 2649 2720 2485 2441 2339 2219 1846 2041 1827 1261 1227 1164 1491 1302 940 375 146 79 272 114 192 305 53 17 5 0 0 0 0
0 0 0 1103 2370 2262 2127 2140 2153 1910 2106 1917 1388 1270 1299 1376 1168 825 262 116 81 342 279 208 331 121 183 27 0 0 0 0
0 0 0 0 1175 1910 1756 1694 2168 1783 2149 2169 1480 1331 1506 1384 1104 705 266 43 180 276 363 169 152 7 13 0 0 0 0 0
0 0 0 0 0 938 1407 1339 1734 2240 1950 2221 1798 1576 1591 1449 1169 772 426 30 198 47 353 283 230 1 124 30 0 0 0 0
1 1 0 0 0 0 374 1443 1363 1738 1824 2250 2010 1657 1656 1476 1301 924 586 128 223 15 297 271 306 44 6 9 0 2 0 0
1 2 1 1 0 1 0 181 1124 1174 1339 1916 2205 1745 1666 1472 1302 926 673 334 145 115 289 309 207 80 0 0 0 0 0 0
2 4 1 3 3 2 0 0 42 1154 1277 1531 2114 1797 1516 1350 1282 921 675 367 143 281 242 221 67 51 0 0 0 0 0 0
4 5 4 1 1 1 1 0 61 631 958 1251 1299 1521 1377 1328 1258 985 664 475 224 133 182 120 35 7 0 0 0 0 0 0
10 7 8 8 4 4 4 2 0 0 392 762 271 481 620 1017 1103 1013 679 483 261 131 145 99 1 0 0 0 0 0 0 0
5 11 12 13 4 6 5 2 2 1 4 119 0 295 523 162 957 872 828 502 248 125 121 118 0 1 0 0 0 0 0 0